Dean International
Flight School

Career Spotlight

Mika

Mika

Congratulations to Mika from Khazakstan. She recently sent us this photo of her flying an Airbus airliner.

More...
Mika's Success Story
close

Congratulations to Mika from Khazakstan. She recently sent us this photo of her flying an Airbus airliner.

Mario

Mario

My dreams could not have been realized if I wouldn't have been part of the Dean International family.

More...
Mario's Success Story
close

"My dreams could not have been realized if I wouldn't have been part of the Dean International family. Thank you Robert, thanks to all my co-workers, and thanks to all of my students!"

Fernando

Fernando

I am now working as a First Officer at TACA and am enjoying every moment of it.

More...
Fernando's Success Story
close

"Will never forget my time of flight training at Dean International. I am now working as a First Officer at TACA and am enjoying every moment of it."

Alvaro

Alvaro

Because of the flight time I was able to built while instructing, I got the experience needed to apply to an airline in Colombia.

More...
Alvaro's Success Story
close

Dean alumnus Alvaro Londoño currently flies with Tampa Cargo. He says of his experience at Dean: "I want to take this opportunity to thank you for giving me the chance to build my experience and expand my knowledge in Dean International. Because of the flight time I was able to built flight instructing, I got the experience needed to apply to an airline in Colombia."

Ralph

Ralph

Every Aruban student of Dean International has made it into Tiara Air Aruba, that is very nice.

More...
Ralph's Success Story
close

"Next to me is my Co-Pilot, Elison. This picture was taken on our first flight together, which was almost exactly 5 years after I finished at Dean International. [...] Every Aruban student of Dean International has made it into Tiara Air Aruba. [...] The future looks bright here in Aruba."

Rohaan

Rohaan

The [..] staff will all work diligently to help you finish your certificates as safely and efficiently as possible.

More...
Rohaan's Success Story
close

After receiving very hard times from other flight schools [...], I came to Dean International where Robert Dean personally sat down with me and gave me a financial and chronological look into how much remained to finish my private pilot certificate. Through his hard efforts as an instructor and mentor, I was able to finish my private pilot certificate within one week.

Welcome to Dean International

In over two decades, Dean International has educated over 7,000 pilots from all over the world, including over 1,000 students from India alone. By offering a great training experience, a friendly service staff, an ample variety of aircraft, and by improving constantly, we have become one of the largest, most prestigious FAA 141-approved flight schools in North America. Located in Miami, Florida, USA, our flight school offers an ideal location for year-round, "learn to fly" weather, flight training. Dean International is not only well-equipped to provide services to professional trainees but also caters to General Aviation renters. Visit or contact our headquarters at Kendall-Tamiami Executive Airport located in Miami, FL today to learn more about us, or simply read more about our programs if you are an international student interested in joining our school.

Local Airport Information
TAF FOR KTMB (Issued: Mon, September 1st 2014 6:30 PM UTC)
KTMB 011726Z 0118/0218 12012KT P6SM FEW035 SCT045
      FM012300 10005KT P6SM FEW025
      FM021400 10010KT P6SM SCT030
     
METAR FOR KTMB (Issued: Mon, September 1st 2014 7:53 PM UTC):
KTMB 011953Z 11010G15KT 10SM FEW034 33/24 A3004 RMK AO2 LTG DSNT W SLP173 T03280239

This weather information is provided by the National Weather Service.
It is automatically refreshed every three minutes.
TAF FOR KHST (Issued: Mon, September 1st 2014 4:06 PM UTC)
TAF KHST 0116/0222 10012KT 9999 VCTS SCT035CB QNH3006INS
      BECMG 0119/0120 11007KT 9999 NSW FEW040 QNH3002INS
      TEMPO 0216/0219 11010G18KT 6000 -TSRA FEW010 BKN035CB TX34/0119Z TN25/0209Z
     
METAR FOR KHST (Issued: Mon, September 1st 2014 7:58 PM UTC):
KHST 011958Z AUTO 09008KT 10SM CLR 32/23 A3005 RMK AO2 SLP179 T03210229

This weather information is provided by the National Weather Service.
It is automatically refreshed every three minutes.
TAF FOR KOPF (Issued: Mon, September 1st 2014 6:27 PM UTC)
TAF KOPF 011726Z 0118/0218 13010KT P6SM FEW035 SCT045 BKN090
      FM012300 10005KT P6SM FEW025
      FM021400 10010KT P6SM SCT030
     
METAR FOR KOPF (Issued: Mon, September 1st 2014 7:53 PM UTC):
KOPF 011953Z 12013KT 10SM FEW100 32/22 A3005 RMK AO2 SLP177 T03220222

This weather information is provided by the National Weather Service.
It is automatically refreshed every three minutes.
TAF FOR KMIA (Issued: Mon, September 1st 2014 6:30 PM UTC)
TAF KMIA 011726Z 0118/0218 13010KT P6SM SCT030 BKN200
      TEMPO 0118/0119 BKN030
      FM012300 10005KT P6SM FEW025
      FM021400 10010KT P6SM SCT030
     
METAR FOR KMIA (Issued: Mon, September 1st 2014 7:53 PM UTC):
KMIA 011953Z 10014G18KT 10SM FEW035 SCT055 SCT130 SCT250 33/22 A3005 RMK AO2 SLP176 CB DSNT SE AND W T03280222

This weather information is provided by the National Weather Service.
It is automatically refreshed every three minutes.
Design by Ariel Llizo
© Dean International Inc. 2012